M0UPS-13 Weather Reports


time (UTC)temp
C
wind
direction
speed
KPH
gust
KPH
rain 1hr
cm
rain 24hr
cm
rain mn
cm
humidity
%
barometer
mb
20260507225002 10 239 0.0 0.0 0.00 0.00 0.00 80 1017.0
20260507224502 10 238 1.6 3.2 0.00 0.00 0.00 78 1017.1
20260507224002 10 236 0.0 0.0 0.00 0.00 0.00 78 1017.2
20260507223502 10 236 1.6 3.2 0.00 0.00 0.00 77 1017.3
20260507223002 10 213 0.0 0.0 0.00 0.00 0.00 77 1017.3
20260507222502 11 213 0.0 3.2 0.00 0.00 0.00 77 1017.2
20260507222002 11 213 1.6 3.2 0.00 0.00 0.00 77 1017.2
20260507221002 11 211 0.0 3.2 0.00 0.00 0.00 76 1017.2
20260507220502 11 251 0.0 3.2 0.00 0.00 0.00 76 1017.1
20260507220002 11 242 0.0 0.0 0.00 0.00 0.00 76 1017.0
20260507215502 11 242 0.0 3.2 0.00 0.00 0.00 76 1017.4
20260507215002 11 242 0.0 0.0 0.00 0.00 0.00 76 1017.4
20260507214502 11 242 0.0 0.0 0.00 0.00 0.00 76 1017.2
20260507214002 11 242 0.0 0.0 0.00 0.00 0.00 75 1017.3
20260507213502 11 242 0.0 0.0 0.00 0.00 0.00 74 1017.4
20260507213002 11 242 0.0 0.0 0.00 0.00 0.00 73 1017.4
20260507212502 11 242 0.0 0.0 0.00 0.00 0.00 73 1017.4
20260507212003 11 240 0.0 0.0 0.00 0.00 0.00 73 1017.2
20260507211502 11 239 1.6 3.2 0.00 0.00 0.00 73 1017.1
20260507211002 11 282 0.0 3.2 0.00 0.00 0.00 72 1017.2
20260507210502 11 228 1.6 3.2 0.00 0.00 0.00 72 1017.1
20260507210002 11 215 0.0 4.8 0.00 0.00 0.00 72 1017.2
20260507205502 11 216 0.0 3.2 0.00 0.00 0.00 72 1016.8
20260507205002 11 188 1.6 3.2 0.00 0.00 0.00 72 1017.1
20260507204504 11 246 3.2 6.4 0.00 0.00 0.00 71 1016.8
20260507204002 11 304 0.0 4.8 0.00 0.00 0.00 71 1017.0
20260507203502 12 201 0.0 4.8 0.00 0.00 0.00 71 1016.6
20260507203002 12 215 3.2 4.8 0.00 0.00 0.00 71 1016.8
20260507202503 12 205 1.6 6.4 0.00 0.00 0.00 70 1016.7
20260507202002 12 32 1.6 4.8 0.00 0.00 0.00 71 1016.6
20260507201503 12 348 3.2 8.0 0.00 0.00 0.00 71 1016.4
20260507201002 12 265 0.0 3.2 0.00 0.00 0.00 70 1016.6
20260507200502 12 312 1.6 4.8 0.00 0.00 0.00 70 1016.6
20260507200002 12 297 1.6 3.2 0.00 0.00 0.00 70 1016.4
20260507195502 12 50 1.6 4.8 0.00 0.00 0.00 69 1016.2
20260507195002 12 257 1.6 3.2 0.00 0.00 0.00 69 1016.2
20260507194503 12 36 4.8 4.8 0.00 0.00 0.00 68 1016.3
20260507194002 12 224 1.6 4.8 0.00 0.00 0.00 68 1016.3
20260507193502 12 285 0.0 4.8 0.00 0.00 0.00 68 1016.1
20260507193002 12 239 1.6 3.2 0.00 0.00 0.00 68 1016.0
20260507192502 12 52 4.8 8.0 0.00 0.00 0.00 67 1016.1
20260507192002 12 234 1.6 4.8 0.00 0.00 0.00 67 1016.3
20260507191502 12 177 3.2 6.4 0.00 0.00 0.00 66 1016.2
20260507191002 12 32 4.8 6.4 0.00 0.00 0.00 66 1016.1
20260507190502 12 4 3.2 4.8 0.00 0.00 0.00 66 1016.1
20260507190003 13 1 1.6 6.4 0.00 0.00 0.00 66 1016.0
20260507185502 13 75 3.2 6.4 0.00 0.00 0.00 67 1015.9
20260507185002 13 316 1.6 4.8 0.00 0.00 0.00 66 1016.0
20260507184503 13 205 0.0 6.4 0.00 0.00 0.00 66 1016.0
20260507184002 13 194 1.6 6.4 0.00 0.00 0.00 65 1015.9
20260507183502 13 196 3.2 8.0 0.00 0.00 0.00 65 1015.9
20260507183002 13 300 0.0 4.8 0.00 0.00 0.00 65 1015.9
20260507182502 13 226 0.0 4.8 0.00 0.00 0.00 64 1015.9
20260507182003 13 293 1.6 3.2 0.00 0.00 0.00 64 1015.9
20260507181502 13 267 3.2 6.4 0.00 0.00 0.00 63 1015.9
20260507181002 13 272 1.6 4.8 0.00 0.00 0.00 62 1015.9
20260507180002 13 258 1.6 6.4 0.00 0.00 0.00 61 1015.8
20260507175502 13 42 3.2 9.7 0.00 0.00 0.00 59 1015.9
20260507175002 14 301 1.6 6.4 0.00 0.00 0.00 59 1015.9
20260507174502 14 160 3.2 9.7 0.00 0.00 0.00 59 1015.9
20260507174002 14 255 1.6 6.4 0.00 0.00 0.00 58 1015.6
20260507173502 14 239 1.6 6.4 0.00 0.00 0.00 58 1015.7
20260507173002 14 253 1.6 4.8 0.00 0.00 0.00 57 1015.7
20260507172502 14 205 3.2 6.4 0.00 0.00 0.00 56 1015.7
20260507172002 14 240 1.6 9.7 0.00 0.00 0.00 55 1015.7
20260507171502 14 223 3.2 6.4 0.00 0.00 0.00 55 1015.9
20260507171002 14 47 4.8 6.4 0.00 0.00 0.00 55 1015.7
20260507170502 14 169 4.8 9.7 0.00 0.00 0.00 54 1015.7
20260507170002 15 174 3.2 4.8 0.00 0.00 0.00 53 1015.7
20260507165502 15 186 3.2 6.4 0.00 0.00 0.00 53 1015.6
20260507165002 15 227 1.6 4.8 0.00 0.00 0.00 53 1015.8
20260507164502 15 260 1.6 4.8 0.00 0.00 0.00 53 1015.7
20260507164002 15 272 3.2 4.8 0.00 0.00 0.00 55 1015.7
20260507163502 15 93 4.8 8.0 0.00 0.00 0.00 54 1015.7
20260507163002 15 218 1.6 4.8 0.00 0.00 0.00 53 1015.6
20260507162502 15 244 1.6 3.2 0.00 0.00 0.00 53 1015.8
20260507162002 15 186 1.6 4.8 0.00 0.00 0.00 53 1015.8
20260507161502 15 282 1.6 3.2 0.00 0.00 0.00 53 1015.7
20260507161002 15 268 3.2 6.4 0.00 0.00 0.00 52 1015.9
20260507160502 15 274 1.6 3.2 0.00 0.00 0.00 53 1015.8
20260507160002 15 201 4.8 6.4 0.00 0.00 0.00 53 1015.7
20260507155502 15 276 0.0 4.8 0.00 0.00 0.00 53 1015.7
20260507155002 15 197 3.2 6.4 0.00 0.00 0.00 53 1015.7
20260507154501 15 249 3.2 8.0 0.00 0.00 0.00 52 1015.8
20260507154002 16 256 4.8 8.0 0.00 0.00 0.00 51 1015.7
20260507153502 15 265 0.0 6.4 0.00 0.00 0.00 53 1015.7
20260507153002 15 326 3.2 8.0 0.00 0.00 0.00 51 1015.9
20260507152502 14 293 1.6 4.8 0.00 0.00 0.00 52 1015.7
20260507152002 14 270 3.2 4.8 0.00 0.00 0.00 53 1015.6
20260507151502 14 272 1.6 3.2 0.00 0.00 0.00 53 1015.9
20260507151002 14 294 1.6 6.4 0.00 0.00 0.00 52 1015.9
20260507150502 14 235 1.6 4.8 0.00 0.00 0.00 51 1015.8
20260507150002 14 216 3.2 4.8 0.00 0.00 0.00 52 1015.9
20260507145502 14 244 1.6 3.2 0.00 0.00 0.00 53 1015.9
20260507145002 15 84 1.6 6.4 0.00 0.00 0.00 51 1015.9
20260507144502 15 316 4.8 6.4 0.00 0.00 0.00 51 1015.9
20260507144002 15 310 1.6 3.2 0.00 0.00 0.00 52 1015.9
20260507143502 15 82 4.8 8.0 0.00 0.00 0.00 52 1015.9
20260507143002 15 55 1.6 6.4 0.00 0.00 0.00 50 1015.8
20260507142502 15 213 1.6 3.2 0.00 0.00 0.00 53 1015.8
20260507142002 15 63 8.0 9.7 0.00 0.00 0.00 51 1015.9
20260507141502 15 300 0.0 6.4 0.00 0.00 0.00 53 1015.9
20260507141002 15 196 3.2 8.0 0.00 0.00 0.00 52 1015.9
20260507140502 15 41 4.8 8.0 0.00 0.00 0.00 53 1015.9
20260507140002 16 237 1.6 14.5 0.00 0.00 0.00 51 1015.9
20260507135502 16 209 3.2 14.5 0.00 0.00 0.00 50 1016.0
20260507135002 15 158 8.0 11.3 0.00 0.00 0.00 50 1015.9
20260507134502 15 181 1.6 8.0 0.00 0.00 0.00 48 1015.9
20260507134002 16 214 1.6 4.8 0.00 0.00 0.00 52 1016.0
20260507133502 15 249 1.6 4.8 0.00 0.00 0.00 51 1016.1
20260507133002 16 46 3.2 9.7 0.00 0.00 0.00 50 1016.1
20260507132502 16 241 4.8 9.7 0.00 0.00 0.00 49 1016.0
20260507132002 15 287 0.0 4.8 0.00 0.00 0.00 51 1016.2
20260507131502 15 225 1.6 4.8 0.00 0.00 0.00 51 1016.2
20260507131002 16 180 3.2 8.0 0.00 0.00 0.00 54 1016.1
20260507130502 15 305 1.6 9.7 0.00 0.00 0.00 52 1016.1
20260507130002 16 247 1.6 6.4 0.00 0.00 0.00 52 1016.2
20260507125502 15 245 4.8 6.4 0.00 0.00 0.00 53 1016.2
20260507125002 15 187 4.8 6.4 0.00 0.00 0.00 54 1016.2
20260507124502 14 355 1.6 3.2 0.00 0.00 0.00 58 1016.4
20260507124002 14 351 4.8 9.7 0.00 0.00 0.00 54 1016.4
20260507123502 14 199 1.6 3.2 0.00 0.00 0.00 55 1016.5
20260507123002 14 17 3.2 4.8 0.00 0.00 0.00 54 1016.4
20260507122502 14 76 4.8 8.0 0.00 0.00 0.00 54 1016.5
20260507122002 13 270 1.6 3.2 0.00 0.00 0.00 57 1016.6
20260507121502 13 35 3.2 8.0 0.00 0.00 0.00 56 1016.6
20260507121002 13 307 1.6 3.2 0.00 0.00 0.00 58 1016.4
20260507120502 13 68 3.2 4.8 0.00 0.00 0.00 57 1016.5
20260507120002 13 318 1.6 4.8 0.00 0.00 0.00 58 1016.5
20260507115502 13 208 3.2 4.8 0.00 0.00 0.00 57 1016.4
20260507115002 13 269 0.0 3.2 0.00 0.00 0.00 60 1016.4
20260507114502 13 226 0.0 3.2 0.00 0.00 0.00 61 1016.6
20260507114003 13 58 1.6 6.4 0.00 0.00 0.00 60 1016.5
20260507113502 13 352 4.8 4.8 0.00 0.00 0.00 60 1016.4
20260507113002 13 50 1.6 6.4 0.00 0.00 0.00 61 1016.6
20260507112502 13 110 4.8 6.4 0.00 0.00 0.00 61 1016.6
20260507112002 12 270 3.2 4.8 0.00 0.00 0.00 60 1016.5
20260507111503 12 236 3.2 3.2 0.00 0.00 0.00 62 1016.6
20260507111002 13 180 3.2 4.8 0.00 0.00 0.00 61 1016.5
20260507110501 13 252 1.6 4.8 0.00 0.00 0.00 60 1016.7
20260507110002 12 282 0.0 4.8 0.00 0.00 0.00 61 1016.8
20260507105502 12 191 3.2 4.8 0.00 0.00 0.00 61 1016.7
20260507105002 12 221 1.6 3.2 0.00 0.00 0.00 62 1016.6
20260507104501 12 194 1.6 6.4 0.00 0.00 0.00 62 1017.0
20260507104003 12 2 1.6 6.4 0.00 0.00 0.00 62 1016.7
20260507103502 13 175 3.2 6.4 0.00 0.00 0.00 62 1016.8
20260507103002 13 84 3.2 6.4 0.00 0.00 0.00 60 1016.6
20260507102502 13 236 1.6 4.8 0.00 0.00 0.00 61 1016.7
20260507102002 13 111 3.2 6.4 0.00 0.00 0.00 59 1017.0
20260507101502 15 57 1.6 6.4 0.00 0.00 0.00 56 1017.1
20260507101002 15 63 0.0 6.4 0.00 0.00 0.00 60 1017.0
20260507100502 14 187 1.6 6.4 0.00 0.00 0.00 59 1016.8
20260507100002 13 46 4.8 6.4 0.00 0.00 0.00 62 1016.8
20260507095502 12 110 6.4 6.4 0.00 0.00 0.00 65 1016.8
20260507095002 12 259 0.0 0.0 0.00 0.00 0.00 67 1016.7
20260507094502 12 258 1.6 3.2 0.00 0.00 0.00 65 1016.7
20260507094002 12 280 0.0 4.8 0.00 0.00 0.00 66 1016.6
20260507093502 12 288 1.6 3.2 0.00 0.00 0.00 67 1016.6
20260507093002 12 272 0.0 0.0 0.00 0.00 0.00 67 1016.7
20260507092502 12 272 0.0 0.0 0.00 0.00 0.00 68 1016.8
20260507092002 11 255 0.0 3.2 0.00 0.00 0.00 68 1016.7
20260507091502 11 248 1.6 3.2 0.00 0.00 0.00 68 1016.7
20260507091002 11 287 1.6 3.2 0.00 0.00 0.00 66 1016.7
20260507090502 11 286 0.0 3.2 0.00 0.00 0.00 69 1016.8
20260507090002 12 298 1.6 4.8 0.00 0.00 0.00 67 1016.6
20260507085502 12 290 0.0 4.8 0.00 0.00 0.00 67 1016.7
20260507085002 12 228 0.0 0.0 0.00 0.00 0.00 64 1016.7
20260507084502 12 228 0.0 0.0 0.00 0.00 0.00 63 1016.8
20260507084002 12 240 0.0 3.2 0.00 0.00 0.00 63 1016.8
20260507083502 12 240 0.0 3.2 0.00 0.00 0.00 62 1016.7
20260507083002 12 233 0.0 0.0 0.00 0.00 0.00 65 1016.6
20260507082501 12 235 1.6 3.2 0.00 0.00 0.00 64 1016.7
20260507082001 12 276 1.6 3.2 0.00 0.00 0.00 65 1016.7
20260507081502 12 230 0.0 0.0 0.00 0.00 0.00 67 1016.6
20260507081002 13 246 3.2 4.8 0.00 0.00 0.00 64 1016.5
20260507080502 13 299 1.6 6.4 0.00 0.00 0.00 62 1016.4
20260507080002 14 82 4.8 8.0 0.00 0.00 0.00 60 1016.6
20260507075502 14 152 6.4 6.4 0.00 0.00 0.00 62 1016.4
20260507075002 13 224 0.0 3.2 0.00 0.00 0.00 64 1016.6
20260507074502 12 218 0.0 3.2 0.00 0.00 0.00 69 1016.5
20260507074002 12 260 1.6 3.2 0.00 0.00 0.00 72 1016.6
20260507073503 12 297 1.6 4.8 0.00 0.00 0.00 72 1016.6
20260507073002 12 33 4.8 4.8 0.00 0.00 0.00 72 1016.7
20260507072502 12 245 0.0 4.8 0.00 0.00 0.00 71 1016.7
20260507072002 12 286 1.6 3.2 0.00 0.00 0.00 71 1016.6
20260507071502 12 239 3.2 4.8 0.00 0.00 0.00 69 1016.7
20260507071002 13 224 1.6 3.2 0.00 0.00 0.00 70 1016.6
20260507070502 12 316 1.6 3.2 0.00 0.00 0.00 72 1016.5
20260507070003 12 268 1.6 4.8 0.00 0.00 0.00 73 1016.7
20260507065502 12 216 1.6 3.2 0.00 0.00 0.00 73 1016.5
20260507065002 12 320 1.6 6.4 0.00 0.00 0.00 73 1016.7
20260507064502 11 325 3.2 6.4 0.00 0.00 0.00 73 1016.5
20260507064002 11 306 3.2 4.8 0.00 0.00 0.00 74 1016.5
20260507063502 11 328 1.6 4.8 0.00 0.00 0.00 75 1016.4
20260507063002 11 305 0.0 3.2 0.00 0.00 0.00 72 1016.5
20260507062502 11 305 0.0 0.0 0.00 0.00 0.00 75 1016.5
20260507062002 11 305 0.0 0.0 0.00 0.00 0.00 75 1016.3
20260507061502 11 305 0.0 0.0 0.00 0.00 0.00 75 1016.3
20260507061002 10 305 0.0 0.0 0.00 0.00 0.00 79 1016.3
20260507060502 10 305 0.0 0.0 0.00 0.00 0.00 81 1016.3
20260507060002 8 305 0.0 0.0 0.00 0.00 0.00 85 1016.1
20260507055502 8 305 0.0 0.0 0.00 0.00 0.00 89 1016.2
20260507055002 7 305 0.0 0.0 0.00 0.00 0.00 88 1016.2
20260507054502 7 305 0.0 0.0 0.00 0.00 0.00 89 1016.3
20260507054002 7 305 0.0 0.0 0.00 0.00 0.00 90 1016.3
20260507053502 7 305 0.0 0.0 0.00 0.00 0.00 90 1016.1
20260507053003 7 305 0.0 0.0 0.00 0.00 0.00 90 1016.0
20260507052502 7 305 0.0 0.0 0.00 0.00 0.00 89 1016.1
20260507052003 7 305 0.0 0.0 0.00 0.00 0.00 89 1016.1
20260507051502 7 305 0.0 0.0 0.00 0.00 0.00 89 1016.1
20260507051002 7 305 0.0 0.0 0.00 0.00 0.00 90 1016.0
20260507050502 7 305 0.0 0.0 0.00 0.00 0.00 90 1015.9
20260507050002 7 305 0.0 0.0 0.00 0.00 0.00 90 1016.0
20260507045502 7 305 1.6 3.2 0.00 0.00 0.00 91 1016.0
20260507045002 7 305 0.0 0.0 0.00 0.00 0.00 91 1016.0
20260507044502 7 305 0.0 0.0 0.00 0.00 0.00 91 1016.0
20260507044002 7 305 0.0 0.0 0.00 0.00 0.00 91 1015.9
20260507043502 7 305 0.0 0.0 0.00 0.00 0.00 91 1015.9
20260507043002 7 305 0.0 0.0 0.00 0.00 0.00 91 1015.9
20260507042502 7 305 0.0 0.0 0.00 0.00 0.00 91 1015.9
20260507042002 7 305 0.0 0.0 0.00 0.00 0.00 91 1015.9
20260507041502 7 305 0.0 0.0 0.00 0.00 0.00 91 1016.0
20260507041002 7 305 0.0 0.0 0.00 0.00 0.00 91 1015.9
20260507040502 7 305 0.0 0.0 0.00 0.00 0.00 91 1015.9
20260507040002 7 305 0.0 0.0 0.00 0.00 0.00 91 1015.9
20260507035502 7 305 0.0 0.0 0.00 0.00 0.00 91 1015.9
20260507035002 7 305 0.0 0.0 0.00 0.00 0.00 91 1015.9
20260507034502 7 305 0.0 0.0 0.00 0.00 0.00 91 1015.9
20260507034002 7 305 0.0 0.0 0.00 0.00 0.00 91 1015.9
20260507033502 7 305 0.0 0.0 0.00 0.00 0.00 90 1015.9
20260507033002 7 305 0.0 0.0 0.00 0.00 0.00 90 1015.8
20260507032502 7 305 0.0 0.0 0.00 0.00 0.00 90 1015.8
20260507032002 7 305 0.0 0.0 0.00 0.00 0.00 90 1015.7
20260507031502 7 305 0.0 0.0 0.00 0.00 0.00 90 1015.7
20260507031002 7 305 0.0 0.0 0.00 0.00 0.00 89 1015.9
20260507030502 7 305 0.0 0.0 0.00 0.00 0.00 89 1015.7
20260507030002 7 305 0.0 0.0 0.00 0.00 0.00 88 1015.8
20260507025502 7 305 0.0 0.0 0.00 0.00 0.00 88 1015.8
20260507025002 7 305 0.0 0.0 0.00 0.00 0.00 88 1015.8
20260507024502 8 305 0.0 0.0 0.00 0.00 0.00 88 1015.7
20260507024002 8 305 0.0 0.0 0.00 0.00 0.00 87 1015.8
20260507023502 8 305 0.0 0.0 0.00 0.00 0.00 87 1015.9
20260507023002 8 305 0.0 0.0 0.00 0.00 0.00 87 1015.9
20260507022502 8 305 0.0 0.0 0.00 0.00 0.00 87 1015.7
20260507022110 8 305 0.0 0.0 0.00 0.00 0.00 86 1015.6
20260507021502 8 305 0.0 0.0 0.00 0.00 0.00 86 1015.6
20260507021002 8 305 0.0 0.0 0.00 0.00 0.00 86 1015.5
20260507020503 8 305 0.0 0.0 0.00 0.00 0.00 86 1015.5
20260507020002 8 305 0.0 0.0 0.00 0.00 0.00 86 1015.5
20260507015502 8 305 0.0 0.0 0.00 0.00 0.00 86 1015.6
20260507015002 8 305 0.0 0.0 0.00 0.00 0.00 86 1015.6
20260507014502 8 305 0.0 0.0 0.00 0.00 0.00 87 1015.6
20260507014002 8 305 0.0 0.0 0.00 0.00 0.00 87 1015.8
20260507013502 8 305 0.0 0.0 0.00 0.00 0.00 87 1015.6
20260507013002 8 305 0.0 0.0 0.00 0.00 0.00 87 1015.4
20260507012502 8 305 0.0 0.0 0.00 0.00 0.00 87 1015.7
20260507012002 8 305 0.0 0.0 0.00 0.00 0.00 87 1015.7
20260507011502 8 305 0.0 0.0 0.00 0.00 0.00 86 1015.5
20260507011002 8 305 0.0 0.0 0.00 0.00 0.00 85 1015.6
20260507010502 8 305 0.0 0.0 0.00 0.00 0.00 85 1015.7
20260507010002 8 305 0.0 0.0 0.00 0.00 0.00 84 1015.5
20260507005502 8 305 0.0 0.0 0.00 0.00 0.00 84 1015.4
20260507005002 8 305 0.0 0.0 0.00 0.00 0.00 84 1015.5
20260507004502 8 305 0.0 0.0 0.00 0.00 0.00 84 1015.5
20260507004002 8 305 0.0 0.0 0.00 0.00 0.00 83 1015.6
20260507003502 8 305 0.0 0.0 0.00 0.00 0.00 82 1015.6
20260507003002 8 305 0.0 0.0 0.00 0.00 0.00 82 1015.4
20260507002502 9 305 0.0 0.0 0.00 0.00 0.00 81 1015.6
20260507002002 9 305 0.0 0.0 0.00 0.00 0.00 81 1015.4
20260507001503 9 306 0.0 0.0 0.00 0.00 0.00 81 1015.4
20260507001002 9 306 0.0 0.0 0.00 0.00 0.00 80 1015.7
20260507000502 9 305 0.0 0.0 0.00 0.00 0.00 80 1015.7
20260507000003 9 305 0.0 0.0 0.00 0.00 0.00 79 1015.7
20260506235502 9 304 0.0 0.0 0.00 0.00 0.00 79 1015.5
20260506235002 10 305 0.0 0.0 0.00 0.00 0.00 78 1015.4
20260506234502 10 305 0.0 0.0 0.00 0.00 0.00 78 1015.5
20260506234002 10 305 0.0 0.0 0.00 0.00 0.00 77 1015.5
20260506233502 10 305 0.0 0.0 0.00 0.00 0.00 77 1015.3
20260506233002 10 305 0.0 0.0 0.00 0.00 0.00 77 1015.4
20260506232502 10 304 0.0 3.2 0.00 0.00 0.00 76 1015.5
20260506232003 10 294 0.0 3.2 0.00 0.00 0.00 76 1015.3
20260506231502 10 292 0.0 3.2 0.00 0.00 0.00 76 1015.3
20260506231002 10 287 0.0 0.0 0.00 0.00 0.00 76 1015.5
20260506230502 10 295 0.0 4.8 0.00 0.00 0.00 76 1015.5
20260506230002 10 241 0.0 0.0 0.00 0.00 0.00 75 1015.4
20260506225502 10 241 0.0 0.0 0.00 0.00 0.00 75 1015.5